TimeCST,TemperatureF,Dew PointF,Humidity,Sea Level PressureIn,VisibilityMPH,Wind Direction,Wind SpeedMPH,Gust SpeedMPH,PrecipitationIn,Events,Conditions,WindDirDegrees,DateUTC
12:47 AM,57.2,48.2,72,30.11,7.0,Calm,Calm,-,N/A,,Partly Cloudy,0,2013-03-09 06:47:00
1:41 AM,59.0,48.2,67,30.08,7.0,Calm,Calm,-,N/A,,Partly Cloudy,0,2013-03-09 07:41:00
3:02 AM,59.0,50.0,72,30.08,7.0,Calm,Calm,-,N/A,,Partly Cloudy,0,2013-03-09 09:02:00
3:44 AM,57.2,51.8,82,30.05,7.0,Calm,Calm,-,N/A,,Partly Cloudy,0,2013-03-09 09:44:00
4:40 AM,59.0,50.0,72,30.05,7.0,East,3.5,-,N/A,,Partly Cloudy,100,2013-03-09 10:40:00
5:43 AM,60.8,50.0,68,30.01,7.0,Calm,Calm,-,N/A,,Scattered Clouds,0,2013-03-09 11:43:00
6:41 AM,60.8,53.6,77,30.06,8.0,ESE,4.6,-,N/A,,Mostly Cloudy,110,2013-03-09 12:41:00
7:46 AM,69.8,53.6,56,30.09,8.0,ESE,4.6,-,N/A,,Mostly Cloudy,120,2013-03-09 13:46:00
8:47 AM,77.0,55.4,47,30.14,8.0,SE,11.5,-,N/A,,Mostly Cloudy,130,2013-03-09 14:47:00
9:55 AM,77.0,51.8,41,30.10,8.0,ESE,12.7,-,N/A,,Mostly Cloudy,120,2013-03-09 15:55:00
10:43 AM,78.8,51.8,39,30.10,8.0,ESE,9.2,-,N/A,,Mostly Cloudy,120,2013-03-09 16:43:00
11:47 AM,77.0,53.6,44,30.04,8.0,ESE,12.7,-,N/A,,Mostly Cloudy,110,2013-03-09 17:47:00
12:45 PM,78.8,53.6,42,30.04,8.0,ESE,12.7,24.2,N/A,,Mostly Cloudy,110,2013-03-09 18:45:00
1:42 PM,75.2,51.8,44,30.02,8.0,East,9.2,-,N/A,,Mostly Cloudy,90,2013-03-09 19:42:00
2:40 PM,75.2,53.6,47,30.04,8.0,East,11.5,-,N/A,,Scattered Clouds,90,2013-03-09 20:40:00
3:46 PM,77.0,50.0,39,29.99,8.0,ESE,13.8,-,N/A,,Partly Cloudy,120,2013-03-09 21:46:00
4:50 PM,75.2,50.0,41,30.00,8.0,East,13.8,-,N/A,,Partly Cloudy,90,2013-03-09 22:50:00
5:42 PM,71.6,51.8,50,29.98,8.0,East,6.9,-,N/A,,Partly Cloudy,90,2013-03-09 23:42:00
6:44 PM,69.8,53.6,56,30.02,7.0,East,5.8,-,N/A,,Scattered Clouds,90,2013-03-10 00:44:00
7:47 PM,68.0,55.4,64,30.03,7.0,East,3.5,-,N/A,,Scattered Clouds,80,2013-03-10 01:47:00
8:41 PM,69.8,59.0,68,30.07,7.0,East,5.8,-,N/A,,Scattered Clouds,80,2013-03-10 02:41:00
9:41 PM,68.0,55.4,64,30.05,7.0,East,5.8,-,N/A,,Scattered Clouds,90,2013-03-10 03:41:00
11:10 PM,69.8,55.4,60,30.01,7.0,East,11.5,-,N/A,,Partly Cloudy,100,2013-03-10 05:10:00
11:53 PM,69.8,53.6,56,29.96,7.0,ESE,10.4,-,N/A,,Partly Cloudy,110,2013-03-10 05:53:00